Location: Bluff Heights
(33.7692°N, 118.1592°W)
Time: 18:40:01
(UTC+00:00)

CZ-4B R/B - Pass Details

Date: 29 October 2020
Orbit: 496 x 647 km, 97.8° (Epoch: 23 November)

Event Time Altitude Azimuth Distance (km) Brightness Sun altitude
Rises 12:56:37 0° 5° (N) 2,820 7.4 -15.7°
Reaches altitude 10° 12:58:53 10° 360° (N) 1,890 6.5 -15.3°
Maximum altitude 13:02:48 48° 286° (WNW) 735 4.0 -14.4°
Drops below altitude 10° 13:06:32 10° 211° (SSW) 1,791 6.2 -13.7°
Sets 13:08:38 0° 206° (SSW) 2,655 7.1 -13.2°
